Lugano, Switzerland

1:51 PM CET on February 27, 2017 (GMT +0100)
Lugano

Weather History for LSZA - November, 2012

Change the Weather History Date:

Monday, November 26, 2012

  Actual Average Record
Temperature  
Mean Temperature 48 °F -  
Max Temperature 50 °F 45 °F 60 °F (2006)
Min Temperature 46 °F 35 °F 24 °F (2008)
Degree Days  
Heating Degree Days 17    
Moisture  
Dew Point 47 °F    
Average Humidity 97    
Maximum Humidity 100    
Minimum Humidity 72    
Precipitation  
Precipitation 0.12 in 0.10 in - ()
Sea Level Pressure  
Sea Level Pressure 30.03 in    
Wind  
Wind Speed 1 mph ()    
Max Wind Speed 4 mph    
Max Gust Speed -    
Visibility 2.4 miles    
Events Rain    
Averages and records for this station are not official NWS values.
T = Trace of Precipitation, MM = Missing Value Source: Averaged Metar Reports

Daily Weather History Graph

Daily Weather History Graph

Search for Another Location

Airport or City:

Trip Planner

Search our weather history database for the weather conditions in past years. The results will help you decide how hot, cold, wet, or windy it might be!

Date:

Astronomy

Nov. 26, 2012 Rise Set
Actual Time 7:39 AM CET 4:43 PM CET
Civil Twilight 7:06 AM CET 5:16 PM CET
Nautical Twilight 6:29 AM CET 5:53 PM CET
Astronomical Twilight 5:53 AM CET 6:29 PM CET
Moon 3:28 PM CET (11/26) 5:30 AM CET (11/26)
Length of Visible Light 10h 10m
Length of Day
9h 03m
Waxing Gibbous, 96% of the Moon is Illuminated
Nov 26
Waxing Gibbous
Nov 28
Full
Dec 6
Last Quarter
Dec 13
New
Dec 20
First Quarter

Hourly Weather History & Observations

Time (CET) Temp. Windchill Dew Point Humidity Pressure Visibility Wind Dir Wind Speed Gust Speed Precip Events Conditions
12:00 AM 49 °F - 43 °F 72% 30.15 in - North 1.2 mph - -  
12:20 AM 46.4 °F - 42.8 °F 87% 30.12 in 6.2 mi Variable 1.2 mph - N/A   Overcast
12:50 AM 46.4 °F 45.2 °F 44.6 °F 93% 30.12 in 6.2 mi SE 3.5 mph - N/A   Overcast
1:20 AM 46.4 °F - 44.6 °F 93% 30.12 in 5.6 mi Variable 2.3 mph - N/A   Overcast
1:50 AM 46.4 °F - 44.6 °F 93% 30.12 in 5.0 mi Variable 1.2 mph - N/A   Mostly Cloudy
2:00 AM 50 °F - 45 °F 77% 30.13 in - South 1.2 mph - -  
2:20 AM 46.4 °F - 44.6 °F 93% 30.12 in 5.6 mi NNE 1.2 mph - N/A   Mostly Cloudy
2:50 AM 46.4 °F - 44.6 °F 93% 30.09 in 5.6 mi Variable 1.2 mph - N/A   Mostly Cloudy
3:00 AM 49 °F - 45 °F 83% 30.13 in - WSW 2.3 mph - -  
3:20 AM 46.4 °F - 44.6 °F 93% 30.09 in 3.7 mi North 2.3 mph - N/A   Scattered Clouds
3:50 AM 46.4 °F 45.2 °F 44.6 °F 93% 30.09 in - North 3.5 mph - N/A   Drizzle
4:20 AM 46.4 °F - 44.6 °F 93% 30.09 in 1.7 mi Variable 2.3 mph - N/A   Drizzle
4:50 AM 46.4 °F - 44.6 °F 93% 30.06 in 1.1 mi Variable 1.2 mph - N/A   Light Drizzle
5:00 AM 47 °F - 47 °F 100% 30.10 in - Calm Calm - -  
5:20 AM 46.4 °F - 46.4 °F 100% 30.06 in 0.9 mi Variable 1.2 mph - N/A   Drizzle
5:50 AM 46.4 °F - 46.4 °F 100% 30.06 in 0.8 mi Variable 1.2 mph - N/A   Drizzle
6:00 AM 47 °F - 47 °F 98% 30.10 in - West 1.2 mph - -  
6:20 AM 46.4 °F - 46.4 °F 100% 30.06 in 0.8 mi Calm Calm - N/A Rain Light Rain
6:50 AM 46.4 °F - 46.4 °F 100% 30.06 in 1.2 mi Variable 1.2 mph - N/A Rain Light Rain
7:20 AM 46.4 °F - 46.4 °F 100% 30.09 in 1.2 mi Variable 1.2 mph - N/A Rain Light Rain
7:50 AM 46.4 °F - 46.4 °F 100% 30.06 in 1.2 mi Variable 1.2 mph - N/A Rain Light Rain
8:00 AM 47 °F - 47 °F 100% 30.10 in - Calm Calm - -  
8:20 AM 46.4 °F - 46.4 °F 100% 30.06 in 1.6 mi Calm Calm - N/A Rain Light Rain
8:50 AM 46.4 °F - 46.4 °F 100% 30.06 in 1.9 mi Variable 1.2 mph - N/A   Light Drizzle
9:00 AM 48 °F - 47 °F 97% 30.11 in - West 1.2 mph - -  
9:20 AM 46.4 °F - 46.4 °F 100% 30.09 in 1.6 mi Variable 2.3 mph - N/A   Drizzle
9:50 AM 46.4 °F - 46.4 °F 100% 30.06 in 1.6 mi Variable 1.2 mph - N/A   Drizzle
10:20 AM 48.2 °F - 46.4 °F 93% 30.06 in 1.6 mi Variable 1.2 mph - N/A   Drizzle
10:50 AM 48.2 °F - 46.4 °F 93% 30.06 in 1.7 mi SSE 1.2 mph - N/A Rain Light Rain
11:00 AM 48 °F - 48 °F 99% 30.10 in - West 1.2 mph - -  
11:20 AM 48.2 °F - 48.2 °F 100% 30.06 in 1.2 mi Variable 1.2 mph - N/A Rain Light Rain
11:50 AM 48.2 °F - 46.4 °F 93% 30.04 in 1.2 mi Variable 1.2 mph - N/A Rain Light Rain
12:00 PM 48 °F - 48 °F 98% 30.07 in - Calm Calm - -  
12:20 PM 48.2 °F - 46.4 °F 93% 30.04 in 1.6 mi Variable 1.2 mph - N/A Rain Light Rain
12:50 PM 48.2 °F - 48.2 °F 100% 30.04 in 1.6 mi Variable 1.2 mph - N/A Rain Rain
1:20 PM 48.2 °F - 48.2 °F 100% 30.01 in 1.6 mi WSW 1.2 mph - N/A Rain Rain
1:50 PM 48.2 °F - 48.2 °F 100% 30.01 in 1.6 mi Variable 2.3 mph - N/A Rain Rain
2:00 PM 48 °F - 48 °F 100% 30.03 in - SSW 1.2 mph - -  
2:20 PM 48.2 °F - 48.2 °F 100% 30.01 in 1.7 mi Variable 1.2 mph - N/A Rain Light Rain
2:50 PM 48.2 °F - 48.2 °F 100% 29.98 in 1.7 mi Calm Calm - N/A Rain Light Rain
3:00 PM 49 °F - 48 °F 95% 30.01 in - Calm Calm - -  
3:20 PM 48.2 °F - 48.2 °F 100% 29.98 in 1.7 mi Calm Calm - N/A Rain Light Rain
3:50 PM 48.2 °F - 48.2 °F 100% 29.98 in 2.8 mi Variable 1.2 mph - N/A Rain Light Rain
4:20 PM 48.2 °F - 48.2 °F 100% 29.98 in 2.8 mi Variable 1.2 mph - N/A Rain Light Rain
4:50 PM 48.2 °F - 48.2 °F 100% 29.98 in 2.8 mi Variable 2.3 mph - N/A Rain Light Rain
5:00 PM 48 °F - 48 °F 100% 29.99 in - ESE 3.5 mph - -  
5:20 PM 48.2 °F - 48.2 °F 100% 29.95 in 1.6 mi Variable 1.2 mph - N/A Rain Light Rain
5:50 PM 48.2 °F - 48.2 °F 100% 29.98 in 1.6 mi SSE 2.3 mph - N/A Rain Light Rain
6:00 PM 48 °F - 48 °F 100% 29.99 in - ESE 2.3 mph - -  
6:20 PM 48.2 °F - 48.2 °F 100% 29.98 in 1.6 mi Variable 1.2 mph - N/A Rain Light Rain
6:50 PM 48.2 °F - 48.2 °F 100% 29.95 in 1.6 mi Variable 1.2 mph - N/A Rain Light Rain
7:20 PM 48.2 °F - 48.2 °F 100% 29.95 in 1.6 mi SE 2.3 mph - N/A Rain Light Rain
7:51 PM 48.2 °F - 48.2 °F 100% 29.95 in 1.6 mi SSW 3.5 mph - N/A Rain Light Rain
8:00 PM 49 °F - 49 °F 98% 29.97 in - SSW 2.3 mph - -  
8:20 PM 48.2 °F - 48.2 °F 100% 29.95 in 2.2 mi Variable 2.3 mph - N/A Rain Rain
8:50 PM 48.2 °F - 48.2 °F 100% 29.95 in 2.2 mi Variable 2.3 mph - N/A Rain Rain
9:00 PM 49 °F - 49 °F 99% 29.97 in - North 1.2 mph - -  
9:20 PM 48.2 °F - 48.2 °F 100% 29.95 in 4.3 mi Variable 2.3 mph - N/A Rain Light Rain
9:50 PM 48.2 °F - 48.2 °F 100% 29.95 in 4.3 mi Variable 2.3 mph - N/A Rain Light Rain
10:20 PM 48.2 °F - 48.2 °F 100% 29.95 in - Variable 2.3 mph - N/A Rain Light Rain
10:50 PM 48.2 °F - 48.2 °F 100% 29.92 in - North 2.3 mph - N/A Rain Rain
11:00 PM 49 °F - 49 °F 98% 29.94 in - NNW 1.2 mph - -  
11:20 PM 48.2 °F - 48.2 °F 100% 29.92 in 3.1 mi Variable 1.2 mph - N/A Rain Rain
11:50 PM 48.2 °F - 48.2 °F 100% 29.92 in - Variable 2.3 mph - N/A Rain Rain